Location: Keppel Henge
(44.7900°N, 80.9447°W)
Time: 04:56:21
(UTC-05:00)

Envisat - Visible Passes

Search period start: 23 January 2018 00:00
Search period end: 02 February 2018 00:00
Orbit: 764 x 766 km, 98.2° (Epoch: 22 January)

Date Brightness Start Highest point End Pass type
(mag) Time Alt. Az. Time Alt. Az. Time Alt. Az.
23 Jan 6.4 07:18:15 10° ENE 07:19:09 10° E 07:20:03 10° E visible
23 Jan 4.3 18:36:31 19° ENE 18:36:41 19° ENE 18:40:11 10° NNE visible
23 Jan 3.9 20:16:42 43° NW 20:16:42 43° NW 20:20:17 10° NNW visible
24 Jan 3.1 19:39:16 55° NNE 19:39:16 55° NNE 19:43:32 10° N visible
24 Jan 5.6 21:19:28 15° WNW 21:19:28 15° WNW 21:21:16 10° NW visible
25 Jan 3.7 19:01:50 30° ENE 19:02:00 30° ENE 19:06:25 10° N visible
25 Jan 4.5 20:42:01 32° WNW 20:42:01 32° WNW 20:45:36 10° NNW visible
26 Jan 4.5 18:24:23 14° ENE 18:25:41 16° ENE 18:28:39 10° NNE visible
26 Jan 3.1 20:04:35 70° NW 20:04:35 70° NW 20:09:11 10° NNW visible
27 Jan 3.1 19:27:07 49° E 19:27:25 50° ENE 19:32:20 10° N visible
27 Jan 5.2 21:07:18 21° W 21:07:18 21° W 21:10:35 10° NW visible
28 Jan 4.0 18:49:40 22° E 18:50:58 25° ENE 18:55:04 10° N visible
28 Jan 3.9 20:29:50 45° W 20:29:50 45° W 20:34:37 10° NNW visible
29 Jan 4.7 18:12:32 10° E 18:14:43 13° ENE 18:16:54 10° NNE visible
29 Jan 2.8 19:52:22 71° SSE 19:52:57 85° ENE 19:58:03 10° NNW visible
29 Jan 5.8 21:32:33 12° W 21:32:38 12° W 21:34:40 10° WNW visible
30 Jan 3.3 19:14:54 33° ESE 19:16:21 40° ENE 19:21:06 10° N visible
30 Jan 4.9 20:55:05 26° WSW 20:55:29 27° W 20:59:46 10° NW visible
31 Jan 4.2 18:37:24 14° E 18:39:57 21° ENE 18:43:39 10° NNE visible
31 Jan 3.5 20:17:35 48° SW 20:18:34 57° W 20:23:35 10° NNW visible
01 Feb 4.8 18:03:03 10° ENE 18:03:46 10° NE 18:04:29 10° NE visible
01 Feb 2.8 19:40:06 41° SE 19:41:50 69° ENE 19:46:54 10° N visible
01 Feb 5.6 21:20:17 15° WSW 21:21:21 16° W 21:24:22 10° NW visible
